Torna al catalogo

COSMOS 2499 DEB

AttivoPO
NORAD 60611·DEBRIS·🇷🇺 Russia

Lanciato May 23, 2014 da Plesetsk Cosmodrome

Loading…

Prossimi Passaggi (prossime 24 ore)

TLE

In scadenzaSource: Space-Track

Epoca: Sep 6, 2026, 01:36 UTC

1 60611U 14028BX  26249.06696951  .00006231  00000-0  16857-1 0  9994
2 60611  82.5388 184.6837 0308101  58.8850 304.2101 12.98828178157350

Traccia COSMOS 2499 DEB in tempo reale con AllMySat

Download on the App Store